Time,TemperatureF,DewpointF,PressureIn,WindDirection,WindDirectionDegrees,WindSpeedMPH,WindSpeedGustMPH,Humidity,HourlyPrecipIn,Conditions,Clouds,dailyrainin,SoftwareType,DateUTC
2013-02-18 00:03:00,11.7,3.2,29.64,North,0,0.0,0.0,68,0.00,,,0.00,WUHU216HW,2013-02-18 05:03:00,
2013-02-18 00:08:00,11.5,2.6,29.65,North,0,0.0,0.0,67,0.00,,,0.00,WUHU216HW,2013-02-18 05:08:00,
2013-02-18 00:13:00,11.5,2.6,29.65,North,0,0.0,0.0,67,0.00,,,0.00,WUHU216HW,2013-02-18 05:13:00,
2013-02-18 00:18:00,11.5,2.3,29.65,North,0,0.0,0.0,66,0.00,,,0.00,WUHU216HW,2013-02-18 05:18:00,
2013-02-18 00:23:00,11.3,2.1,29.65,North,0,0.0,0.0,66,0.00,,,0.00,WUHU216HW,2013-02-18 05:23:00,
2013-02-18 00:28:00,11.2,2.3,29.66,North,0,0.0,0.0,67,0.00,,,0.00,WUHU216HW,2013-02-18 05:28:00,
2013-02-18 00:33:00,11.2,2.3,29.66,North,0,0.0,0.0,67,0.00,,,0.00,WUHU216HW,2013-02-18 05:33:00,
2013-02-18 00:38:00,11.2,2.3,29.66,North,0,0.0,0.0,67,0.00,,,0.00,WUHU216HW,2013-02-18 05:38:00,
2013-02-18 00:43:00,11.2,1.9,29.66,North,0,0.0,0.0,66,0.00,,,0.00,WUHU216HW,2013-02-18 05:43:00,
2013-02-18 00:49:00,11.2,1.6,29.66,North,0,0.0,0.0,65,0.00,,,0.00,WUHU216HW,2013-02-18 05:49:00,
2013-02-18 00:54:00,11.2,1.6,29.67,North,0,0.0,0.0,65,0.00,,,0.00,WUHU216HW,2013-02-18 05:54:00,
2013-02-18 00:59:00,10.8,1.3,29.67,North,0,0.0,0.0,65,0.00,,,0.00,WUHU216HW,2013-02-18 05:59:00,
2013-02-18 01:04:00,10.8,1.3,29.66,North,0,0.0,0.0,65,0.00,,,0.00,WUHU216HW,2013-02-18 06:04:00,
2013-02-18 01:09:00,10.8,1.3,29.66,North,0,0.0,0.0,65,0.00,,,0.00,WUHU216HW,2013-02-18 06:09:00,
2013-02-18 01:14:00,10.8,1.3,29.67,North,0,0.0,0.0,65,0.00,,,0.00,WUHU216HW,2013-02-18 06:14:00,
2013-02-18 01:19:00,10.8,1.3,29.67,North,0,0.0,0.0,65,0.00,,,0.00,WUHU216HW,2013-02-18 06:19:00,
2013-02-18 01:24:00,10.8,1.3,29.67,North,0,0.0,0.0,65,0.00,,,0.00,WUHU216HW,2013-02-18 06:24:00,
2013-02-18 01:29:00,10.6,1.1,29.67,North,0,0.0,0.0,65,0.00,,,0.00,WUHU216HW,2013-02-18 06:29:00,
2013-02-18 01:34:00,10.6,1.1,29.68,North,0,0.0,0.0,65,0.00,,,0.00,WUHU216HW,2013-02-18 06:34:00,
2013-02-18 01:39:00,10.6,1.1,29.68,North,0,0.0,0.0,65,0.00,,,0.00,WUHU216HW,2013-02-18 06:39:00,
2013-02-18 01:44:00,10.4,0.9,29.69,North,0,0.0,0.0,65,0.00,,,0.00,WUHU216HW,2013-02-18 06:44:00,
2013-02-18 01:49:00,10.4,0.9,29.69,North,0,0.0,0.0,65,0.00,,,0.00,WUHU216HW,2013-02-18 06:49:00,
2013-02-18 01:54:00,10.4,0.9,29.69,North,0,0.0,0.0,65,0.00,,,0.00,WUHU216HW,2013-02-18 06:54:00,
2013-02-18 01:59:00,10.4,0.9,29.69,North,0,0.0,0.0,65,0.00,,,0.00,WUHU216HW,2013-02-18 06:59:00,
2013-02-18 02:04:00,10.6,1.1,29.69,North,0,0.0,0.0,65,0.00,,,0.00,WUHU216HW,2013-02-18 07:04:00,
2013-02-18 02:09:00,10.4,0.9,29.70,North,0,0.0,0.0,65,0.00,,,0.00,WUHU216HW,2013-02-18 07:09:00,
2013-02-18 02:14:00,10.4,0.9,29.70,North,0,0.0,0.0,65,0.00,,,0.00,WUHU216HW,2013-02-18 07:14:00,
2013-02-18 02:19:00,10.3,1.1,29.70,North,0,0.0,0.0,66,0.00,,,0.00,WUHU216HW,2013-02-18 07:19:00,
2013-02-18 02:24:00,10.1,0.9,29.70,North,0,0.0,0.0,66,0.00,,,0.00,WUHU216HW,2013-02-18 07:24:00,
2013-02-18 02:29:00,10.1,1.2,29.71,North,0,0.0,0.0,67,0.00,,,0.00,WUHU216HW,2013-02-18 07:29:00,
2013-02-18 02:34:00,9.9,1.4,29.71,North,0,0.0,0.0,68,0.00,,,0.00,WUHU216HW,2013-02-18 07:34:00,
2013-02-18 02:39:00,9.7,1.2,29.71,North,0,0.0,0.0,68,0.00,,,0.00,WUHU216HW,2013-02-18 07:39:00,
2013-02-18 02:44:00,9.9,1.1,29.71,North,0,0.0,0.0,67,0.00,,,0.00,WUHU216HW,2013-02-18 07:44:00,
2013-02-18 02:49:00,9.7,0.9,29.71,North,0,0.0,0.0,67,0.00,,,0.00,WUHU216HW,2013-02-18 07:49:00,
2013-02-18 02:54:00,9.7,1.2,29.72,North,0,0.0,0.0,68,0.00,,,0.00,WUHU216HW,2013-02-18 07:54:00,
2013-02-18 02:59:00,9.7,0.9,29.72,North,0,0.0,0.0,67,0.00,,,0.00,WUHU216HW,2013-02-18 07:59:00,
2013-02-18 03:04:00,9.7,1.2,29.72,North,0,0.0,0.0,68,0.00,,,0.00,WUHU216HW,2013-02-18 08:04:00,
2013-02-18 03:09:00,9.7,1.2,29.72,North,0,0.0,0.0,68,0.00,,,0.00,WUHU216HW,2013-02-18 08:09:00,
2013-02-18 03:14:00,9.7,0.9,29.72,North,0,0.0,0.0,67,0.00,,,0.00,WUHU216HW,2013-02-18 08:14:00,
2013-02-18 03:19:00,9.7,0.9,29.72,North,0,0.0,0.0,67,0.00,,,0.00,WUHU216HW,2013-02-18 08:19:00,
2013-02-18 03:24:00,9.7,0.9,29.72,North,0,0.0,0.0,67,0.00,,,0.00,WUHU216HW,2013-02-18 08:24:00,
2013-02-18 03:29:00,9.5,0.7,29.72,North,0,0.0,0.0,67,0.00,,,0.00,WUHU216HW,2013-02-18 08:29:00,
2013-02-18 03:34:00,9.5,0.7,29.72,North,0,0.0,0.0,67,0.00,,,0.00,WUHU216HW,2013-02-18 08:34:00,
2013-02-18 03:40:00,9.4,0.5,29.73,North,0,0.0,0.0,67,0.00,,,0.00,WUHU216HW,2013-02-18 08:40:00,
2013-02-18 03:45:00,9.2,0.4,29.73,North,0,0.0,0.0,67,0.00,,,0.00,WUHU216HW,2013-02-18 08:45:00,
2013-02-18 03:50:00,9.2,0.4,29.73,North,0,0.0,0.0,67,0.00,,,0.00,WUHU216HW,2013-02-18 08:50:00,
2013-02-18 03:55:00,9.0,0.2,29.73,North,0,0.0,0.0,67,0.00,,,0.00,WUHU216HW,2013-02-18 08:55:00,
2013-02-18 04:00:00,9.0,0.2,29.73,North,0,0.0,0.0,67,0.00,,,0.00,WUHU216HW,2013-02-18 09:00:00,
2013-02-18 04:05:00,9.5,0.4,29.73,North,0,0.0,0.0,66,0.00,,,0.00,WUHU216HW,2013-02-18 09:05:00,
2013-02-18 04:10:00,9.7,0.5,29.74,North,0,0.0,0.0,66,0.00,,,0.00,WUHU216HW,2013-02-18 09:10:00,
2013-02-18 04:15:00,9.7,0.5,29.74,North,0,0.0,0.0,66,0.00,,,0.00,WUHU216HW,2013-02-18 09:15:00,
2013-02-18 04:20:00,9.7,0.2,29.75,North,0,0.0,0.0,65,0.00,,,0.00,WUHU216HW,2013-02-18 09:20:00,
2013-02-18 04:25:00,9.7,0.2,29.75,North,0,0.0,0.0,65,0.00,,,0.00,WUHU216HW,2013-02-18 09:25:00,
2013-02-18 04:30:00,9.9,0.4,29.75,North,0,0.0,0.0,65,0.00,,,0.00,WUHU216HW,2013-02-18 09:30:00,
2013-02-18 04:35:00,9.7,-0.1,29.76,North,0,0.0,0.0,64,0.00,,,0.00,WUHU216HW,2013-02-18 09:35:00,
2013-02-18 04:40:00,9.7,-0.1,29.76,North,0,0.0,0.0,64,0.00,,,0.00,WUHU216HW,2013-02-18 09:40:00,
2013-02-18 04:45:00,9.4,-0.1,29.76,North,0,0.0,0.0,65,0.00,,,0.00,WUHU216HW,2013-02-18 09:45:00,
2013-02-18 04:50:00,9.5,0.1,29.76,North,0,0.0,0.0,65,0.00,,,0.00,WUHU216HW,2013-02-18 09:50:00,
2013-02-18 04:55:00,9.5,-0.3,29.77,North,0,0.0,0.0,64,0.00,,,0.00,WUHU216HW,2013-02-18 09:55:00,
2013-02-18 05:00:00,9.4,-0.4,29.77,North,0,0.0,0.0,64,0.00,,,0.00,WUHU216HW,2013-02-18 10:00:00,
2013-02-18 05:05:00,9.2,-0.6,29.77,North,0,0.0,0.0,64,0.00,,,0.00,WUHU216HW,2013-02-18 10:05:00,
2013-02-18 05:10:00,9.0,-0.4,29.77,North,0,0.0,0.0,65,0.00,,,0.00,WUHU216HW,2013-02-18 10:10:00,
2013-02-18 05:15:00,8.6,-0.8,29.78,North,0,0.0,0.0,65,0.00,,,0.00,WUHU216HW,2013-02-18 10:15:00,
2013-02-18 05:20:00,8.6,-0.8,29.78,North,0,0.0,0.0,65,0.00,,,0.00,WUHU216HW,2013-02-18 10:20:00,
2013-02-18 05:25:00,8.5,-1.0,29.79,North,0,0.0,0.0,65,0.00,,,0.00,WUHU216HW,2013-02-18 10:25:00,
2013-02-18 05:30:00,8.6,-0.8,29.79,North,0,0.0,0.0,65,0.00,,,0.00,WUHU216HW,2013-02-18 10:30:00,
2013-02-18 05:35:00,8.6,-0.8,29.79,North,0,0.0,0.0,65,0.00,,,0.00,WUHU216HW,2013-02-18 10:35:00,
2013-02-18 05:40:00,8.6,-0.8,29.79,North,0,0.0,0.0,65,0.00,,,0.00,WUHU216HW,2013-02-18 10:40:00,
2013-02-18 05:45:00,8.6,-0.8,29.80,North,0,0.0,0.0,65,0.00,,,0.00,WUHU216HW,2013-02-18 10:45:00,
2013-02-18 05:50:00,9.0,-0.8,29.80,North,0,0.0,0.0,64,0.00,,,0.00,WUHU216HW,2013-02-18 10:50:00,
2013-02-18 05:55:00,9.0,-0.8,29.80,North,0,0.0,0.0,64,0.00,,,0.00,WUHU216HW,2013-02-18 10:55:00,
2013-02-18 06:00:00,8.8,-1.0,29.80,North,0,0.0,0.0,64,0.00,,,0.00,WUHU216HW,2013-02-18 11:00:00,
2013-02-18 06:05:00,8.8,-1.0,29.80,North,0,0.0,0.0,64,0.00,,,0.00,WUHU216HW,2013-02-18 11:05:00,
2013-02-18 06:11:00,9.0,-0.8,29.80,North,0,0.0,0.0,64,0.00,,,0.00,WUHU216HW,2013-02-18 11:11:00,
2013-02-18 06:16:00,8.8,-1.0,29.80,North,0,0.0,0.0,64,0.00,,,0.00,WUHU216HW,2013-02-18 11:16:00,
2013-02-18 06:21:00,8.8,-1.0,29.81,North,0,0.0,0.0,64,0.00,,,0.00,WUHU216HW,2013-02-18 11:21:00,
2013-02-18 06:26:00,8.8,-1.0,29.81,North,0,0.0,0.0,64,0.00,,,0.00,WUHU216HW,2013-02-18 11:26:00,
2013-02-18 06:31:00,8.8,-1.0,29.81,North,0,0.0,0.0,64,0.00,,,0.00,WUHU216HW,2013-02-18 11:31:00,
2013-02-18 06:36:00,8.6,-1.2,29.81,North,0,0.0,0.0,64,0.00,,,0.00,WUHU216HW,2013-02-18 11:36:00,
2013-02-18 06:41:00,8.6,-1.2,29.81,North,0,0.0,0.0,64,0.00,,,0.00,WUHU216HW,2013-02-18 11:41:00,
2013-02-18 06:46:00,8.6,-1.2,29.81,North,0,0.0,0.0,64,0.00,,,0.00,WUHU216HW,2013-02-18 11:46:00,
2013-02-18 06:51:00,8.3,-1.5,29.81,North,0,0.0,0.0,64,0.00,,,0.00,WUHU216HW,2013-02-18 11:51:00,
2013-02-18 06:56:00,8.6,-1.2,29.82,North,0,0.0,0.0,64,0.00,,,0.00,WUHU216HW,2013-02-18 11:56:00,
2013-02-18 07:01:00,8.6,-1.2,29.82,North,0,0.0,0.0,64,0.00,,,0.00,WUHU216HW,2013-02-18 12:01:00,
2013-02-18 07:06:00,8.5,-1.3,29.83,North,0,0.0,0.0,64,0.00,,,0.00,WUHU216HW,2013-02-18 12:06:00,
2013-02-18 07:11:00,8.3,-1.5,29.83,North,0,0.0,0.0,64,0.00,,,0.00,WUHU216HW,2013-02-18 12:11:00,
2013-02-18 07:16:00,8.3,-1.5,29.84,North,0,0.0,0.0,64,0.00,,,0.00,WUHU216HW,2013-02-18 12:16:00,
2013-02-18 07:21:00,7.9,-1.8,29.84,North,0,0.0,0.0,64,0.00,,,0.00,WUHU216HW,2013-02-18 12:21:00,
2013-02-18 07:26:00,7.7,-1.6,29.84,North,0,0.0,0.0,65,0.00,,,0.00,WUHU216HW,2013-02-18 12:26:00,
2013-02-18 07:32:00,8.8,-0.6,29.84,North,0,0.0,0.0,65,0.00,,,0.00,WUHU216HW,2013-02-18 12:32:00,
2013-02-18 07:37:00,9.5,-0.3,29.84,North,0,0.0,0.0,64,0.00,,,0.00,WUHU216HW,2013-02-18 12:37:00,
2013-02-18 07:42:00,9.9,0.1,29.84,North,0,0.0,0.0,64,0.00,,,0.00,WUHU216HW,2013-02-18 12:42:00,
2013-02-18 07:47:00,10.3,0.4,29.83,North,0,0.0,0.0,64,0.00,,,0.00,WUHU216HW,2013-02-18 12:47:00,
2013-02-18 07:52:00,10.6,0.5,29.84,North,0,0.0,0.0,63,0.00,,,0.00,WUHU216HW,2013-02-18 12:52:00,
2013-02-18 07:57:00,11.0,0.5,29.84,North,0,0.0,0.0,62,0.00,,,0.00,WUHU216HW,2013-02-18 12:57:00,
2013-02-18 08:02:00,11.3,0.7,29.84,North,0,0.0,0.0,62,0.00,,,0.00,WUHU216HW,2013-02-18 13:02:00,
2013-02-18 08:07:00,12.1,0.7,29.84,North,0,0.0,0.0,60,0.00,,,0.00,WUHU216HW,2013-02-18 13:07:00,
2013-02-18 08:12:00,12.8,0.6,29.84,North,0,0.0,0.0,58,0.00,,,0.00,WUHU216HW,2013-02-18 13:12:00,
2013-02-18 08:17:00,13.3,0.5,29.84,North,0,0.0,0.0,56,0.00,,,0.00,WUHU216HW,2013-02-18 13:17:00,
2013-02-18 08:22:00,13.5,0.6,29.84,North,0,0.0,0.0,56,0.00,,,0.00,WUHU216HW,2013-02-18 13:22:00,
2013-02-18 08:27:00,13.7,0.0,29.84,North,0,0.0,0.0,54,0.00,,,0.00,WUHU216HW,2013-02-18 13:27:00,
2013-02-18 08:32:00,14.0,0.4,29.84,North,0,0.0,0.0,54,0.00,,,0.00,WUHU216HW,2013-02-18 13:32:00,
2013-02-18 08:37:00,14.0,-0.1,29.85,North,0,0.0,0.0,53,0.00,,,0.00,WUHU216HW,2013-02-18 13:37:00,
2013-02-18 08:42:00,14.4,0.3,29.85,North,0,0.0,0.0,53,0.00,,,0.00,WUHU216HW,2013-02-18 13:42:00,
2013-02-18 08:47:00,14.8,-0.2,29.85,North,0,0.0,0.0,51,0.00,,,0.00,WUHU216HW,2013-02-18 13:47:00,
2013-02-18 08:52:00,14.9,-0.4,29.85,North,0,0.0,0.0,50,0.00,,,0.00,WUHU216HW,2013-02-18 13:52:00,
2013-02-18 08:57:00,15.1,-0.6,29.86,North,0,0.0,0.0,49,0.00,,,0.00,WUHU216HW,2013-02-18 13:57:00,
2013-02-18 09:02:00,15.3,-0.4,29.86,North,0,0.0,0.0,49,0.00,,,0.00,WUHU216HW,2013-02-18 14:02:00,
2013-02-18 09:07:00,15.5,-0.8,29.86,North,0,0.0,0.0,48,0.00,,,0.00,WUHU216HW,2013-02-18 14:07:00,
2013-02-18 09:12:00,15.7,-0.6,29.87,North,0,0.0,0.0,48,0.00,,,0.00,WUHU216HW,2013-02-18 14:12:00,
2013-02-18 09:17:00,16.0,-0.7,29.87,North,0,0.0,0.0,47,0.00,,,0.00,WUHU216HW,2013-02-18 14:17:00,
2013-02-18 09:22:00,16.2,-1.1,29.87,North,0,0.0,0.0,46,0.00,,,0.00,WUHU216HW,2013-02-18 14:22:00,
2013-02-18 09:27:00,16.6,-0.7,29.87,North,0,0.0,0.0,46,0.00,,,0.00,WUHU216HW,2013-02-18 14:27:00,
2013-02-18 09:32:00,16.9,-0.9,29.87,North,0,0.0,0.0,45,0.00,,,0.00,WUHU216HW,2013-02-18 14:32:00,
2013-02-18 09:37:00,16.9,-1.3,29.87,North,0,0.0,0.0,44,0.00,,,0.00,WUHU216HW,2013-02-18 14:37:00,
2013-02-18 09:42:00,17.3,-1.0,29.87,North,0,0.0,0.0,44,0.00,,,0.00,WUHU216HW,2013-02-18 14:42:00,
2013-02-18 09:47:00,17.5,-1.2,29.87,North,0,0.0,0.0,43,0.00,,,0.00,WUHU216HW,2013-02-18 14:47:00,
2013-02-18 09:52:00,17.5,-1.8,29.87,North,0,0.0,0.0,42,0.00,,,0.00,WUHU216HW,2013-02-18 14:52:00,
2013-02-18 09:57:00,17.6,-1.6,29.87,North,0,0.0,0.0,42,0.00,,,0.00,WUHU216HW,2013-02-18 14:57:00,
2013-02-18 10:02:00,17.8,-1.4,29.87,North,0,0.0,0.0,42,0.00,,,0.00,WUHU216HW,2013-02-18 15:02:00,
2013-02-18 10:07:00,18.0,-1.3,29.87,North,0,0.0,0.0,42,0.00,,,0.00,WUHU216HW,2013-02-18 15:07:00,
2013-02-18 10:12:00,18.2,-1.5,29.87,North,0,0.0,0.0,41,0.00,,,0.00,WUHU216HW,2013-02-18 15:12:00,
2013-02-18 10:17:00,18.4,-1.4,29.88,North,0,0.0,0.0,41,0.00,,,0.00,WUHU216HW,2013-02-18 15:17:00,
2013-02-18 10:22:00,18.4,-1.4,29.87,North,0,0.0,0.0,41,0.00,,,0.00,WUHU216HW,2013-02-18 15:22:00,
2013-02-18 10:27:00,18.9,-1.3,29.88,North,0,0.0,0.0,40,0.00,,,0.00,WUHU216HW,2013-02-18 15:27:00,
2013-02-18 10:32:00,19.1,-1.3,29.88,North,0,0.0,0.0,40,0.00,,,0.00,WUHU216HW,2013-02-18 15:32:00,
2013-02-18 10:37:00,19.1,-1.3,29.88,North,0,0.0,0.0,40,0.00,,,0.00,WUHU216HW,2013-02-18 15:37:00,
2013-02-18 10:42:00,19.3,-1.7,29.88,North,0,7.6,8.9,39,0.00,,,0.00,WUHU216HW,2013-02-18 15:42:00,
2013-02-18 10:47:00,19.6,-1.3,29.88,North,0,2.7,8.9,39,0.00,,,0.00,WUHU216HW,2013-02-18 15:47:00,
2013-02-18 10:52:00,19.8,-0.1,29.88,NNE,23,8.1,8.1,41,0.00,,,0.00,WUHU216HW,2013-02-18 15:52:00,
2013-02-18 10:57:00,20.2,-1.4,29.88,NNE,23,8.7,8.7,38,0.00,,,0.00,WUHU216HW,2013-02-18 15:57:00,
2013-02-18 11:02:00,20.3,-0.7,29.88,North,0,8.9,11.4,39,0.00,,,0.00,WUHU216HW,2013-02-18 16:02:00,
2013-02-18 11:07:00,20.2,-2.1,29.88,North,0,7.8,11.4,37,0.00,,,0.00,WUHU216HW,2013-02-18 16:07:00,
2013-02-18 11:12:00,20.2,-0.3,29.88,North,0,8.3,11.4,40,0.00,,,0.00,WUHU216HW,2013-02-18 16:12:00,
2013-02-18 11:17:00,20.7,-0.3,29.88,North,0,8.1,9.2,39,0.00,,,0.00,WUHU216HW,2013-02-18 16:17:00,
2013-02-18 11:22:00,21.1,-0.1,29.88,North,0,8.3,9.2,39,0.00,,,0.00,WUHU216HW,2013-02-18 16:22:00,
2013-02-18 11:27:00,21.2,-1.7,29.88,North,0,7.6,12.1,36,0.00,,,0.00,WUHU216HW,2013-02-18 16:27:00,
2013-02-18 11:32:00,21.8,-2.4,29.88,NNW,338,5.4,12.1,34,0.00,,,0.00,WUHU216HW,2013-02-18 16:32:00,
2013-02-18 11:37:00,22.0,-3.5,29.88,East,90,6.0,11.6,32,0.00,,,0.00,WUHU216HW,2013-02-18 16:37:00,
2013-02-18 11:43:00,22.3,-3.2,29.88,North,0,6.7,17.2,32,0.00,,,0.00,WUHU216HW,2013-02-18 16:43:00,
2013-02-18 11:48:00,22.5,-3.1,29.88,NE,45,7.2,17.2,32,0.00,,,0.00,WUHU216HW,2013-02-18 16:48:00,
2013-02-18 11:53:00,22.5,-2.4,29.88,NNW,338,9.8,12.1,33,0.00,,,0.00,WUHU216HW,2013-02-18 16:53:00,
2013-02-18 11:58:00,22.7,-2.9,29.88,North,0,10.1,12.1,32,0.00,,,0.00,WUHU216HW,2013-02-18 16:58:00,
2013-02-18 12:03:00,22.9,-2.7,29.88,North,0,3.6,10.1,32,0.00,,,0.00,WUHU216HW,2013-02-18 17:03:00,
2013-02-18 12:08:00,22.9,-2.1,29.88,North,0,6.0,8.5,33,0.00,,,0.00,WUHU216HW,2013-02-18 17:08:00,
2013-02-18 12:13:00,22.9,-2.1,29.88,WNW,293,2.2,11.4,33,0.00,,,0.00,WUHU216HW,2013-02-18 17:13:00,
2013-02-18 12:18:00,22.9,-2.7,29.88,NNE,23,4.7,14.1,32,0.00,,,0.00,WUHU216HW,2013-02-18 17:18:00,
2013-02-18 12:23:00,23.2,-2.4,29.88,NE,45,7.8,14.1,32,0.00,,,0.00,WUHU216HW,2013-02-18 17:23:00,
2013-02-18 12:28:00,23.4,-1.6,29.88,North,0,0.0,7.8,33,0.00,,,0.00,WUHU216HW,2013-02-18 17:28:00,
2013-02-18 12:33:00,23.8,-1.2,29.88,North,0,0.0,7.8,33,0.00,,,0.00,WUHU216HW,2013-02-18 17:33:00,
2013-02-18 12:38:00,23.9,-1.7,29.88,North,0,0.0,0.0,32,0.00,,,0.00,WUHU216HW,2013-02-18 17:38:00,
2013-02-18 12:43:00,24.1,-2.1,29.88,North,0,0.0,0.0,31,0.00,,,0.00,WUHU216HW,2013-02-18 17:43:00,
2013-02-18 12:48:00,23.8,-1.9,29.88,North,0,0.0,0.0,32,0.00,,,0.00,WUHU216HW,2013-02-18 17:48:00,
2013-02-18 12:53:00,23.9,-1.7,29.88,North,0,0.0,0.0,32,0.00,,,0.00,WUHU216HW,2013-02-18 17:53:00,
2013-02-18 12:58:00,24.1,-1.6,29.88,North,0,0.0,0.0,32,0.00,,,0.00,WUHU216HW,2013-02-18 17:58:00,
2013-02-18 13:03:00,24.3,-2.1,29.88,North,0,0.0,0.0,31,0.00,,,0.00,WUHU216HW,2013-02-18 18:03:00,
2013-02-18 13:08:00,24.3,-1.4,29.88,North,0,0.0,0.0,32,0.00,,,0.00,WUHU216HW,2013-02-18 18:08:00,
2013-02-18 13:13:00,24.5,-2.5,29.88,North,0,0.0,0.0,30,0.00,,,0.00,WUHU216HW,2013-02-18 18:13:00,
2013-02-18 13:18:00,24.3,-2.1,29.88,North,0,0.0,0.0,31,0.00,,,0.00,WUHU216HW,2013-02-18 18:18:00,
2013-02-18 13:23:00,24.5,-2.5,29.88,North,0,0.0,0.0,30,0.00,,,0.00,WUHU216HW,2013-02-18 18:23:00,
2013-02-18 13:28:00,24.8,-1.5,29.88,North,0,0.0,0.0,31,0.00,,,0.00,WUHU216HW,2013-02-18 18:28:00,
2013-02-18 13:33:00,25.0,-2.0,29.88,North,0,0.0,0.0,30,0.00,,,0.00,WUHU216HW,2013-02-18 18:33:00,
2013-02-18 13:38:00,25.0,-2.9,29.88,North,0,0.0,0.0,29,0.00,,,0.00,WUHU216HW,2013-02-18 18:38:00,
2013-02-18 13:43:00,25.0,-2.0,29.88,North,0,0.0,0.0,30,0.00,,,0.00,WUHU216HW,2013-02-18 18:43:00,
2013-02-18 13:48:00,25.2,-1.3,29.88,NNE,23,8.3,8.5,31,0.00,,,0.00,WUHU216HW,2013-02-18 18:48:00,
2013-02-18 13:53:00,25.2,-3.6,29.88,North,0,17.2,17.2,28,0.00,,,0.00,WUHU216HW,2013-02-18 18:53:00,
2013-02-18 13:58:00,25.0,-2.9,29.88,North,0,5.6,17.2,29,0.00,,,0.00,WUHU216HW,2013-02-18 18:58:00,
2013-02-18 14:03:00,25.2,-1.9,29.88,NE,45,3.4,8.3,30,0.00,,,0.00,WUHU216HW,2013-02-18 19:03:00,
2013-02-18 14:08:00,25.7,-3.1,29.88,North,0,4.3,9.6,28,0.00,,,0.00,WUHU216HW,2013-02-18 19:08:00,
2013-02-18 14:13:00,26.1,-2.8,29.88,North,0,4.3,9.6,28,0.00,,,0.00,WUHU216HW,2013-02-18 19:13:00,
2013-02-18 14:18:00,26.1,-2.8,29.88,NNW,338,4.9,4.9,28,0.00,,,0.00,WUHU216HW,2013-02-18 19:18:00,
2013-02-18 14:23:00,25.9,-3.0,29.89,North,0,3.4,4.9,28,0.00,,,0.00,WUHU216HW,2013-02-18 19:23:00,
2013-02-18 14:28:00,26.3,-2.7,29.89,NE,45,1.1,4.0,28,0.00,,,0.00,WUHU216HW,2013-02-18 19:28:00,
2013-02-18 14:33:00,26.3,-3.5,29.89,ENE,68,2.0,8.3,27,0.00,,,0.00,WUHU216HW,2013-02-18 19:33:00,
2013-02-18 14:38:00,26.1,-2.0,29.89,NNW,338,6.3,8.3,29,0.00,,,0.00,WUHU216HW,2013-02-18 19:38:00,
2013-02-18 14:43:00,25.7,-4.0,29.89,North,0,1.8,8.5,27,0.00,,,0.00,WUHU216HW,2013-02-18 19:43:00,
2013-02-18 14:48:00,25.9,-2.2,29.89,NNE,23,3.6,8.5,29,0.00,,,0.00,WUHU216HW,2013-02-18 19:48:00,
2013-02-18 14:53:00,25.6,-3.2,29.89,NE,45,3.4,7.4,28,0.00,,,0.00,WUHU216HW,2013-02-18 19:53:00,
2013-02-18 14:58:00,25.6,-4.1,29.89,North,0,11.4,13.0,27,0.00,,,0.00,WUHU216HW,2013-02-18 19:58:00,
2013-02-18 15:03:00,25.2,-4.4,29.90,North,0,6.3,13.0,27,0.00,,,0.00,WUHU216HW,2013-02-18 20:03:00,
2013-02-18 15:08:00,25.0,-2.9,29.90,North,0,3.6,7.8,29,0.00,,,0.00,WUHU216HW,2013-02-18 20:08:00,
2013-02-18 15:13:00,24.8,-3.9,29.90,North,0,6.0,6.0,28,0.00,,,0.00,WUHU216HW,2013-02-18 20:13:00,
2013-02-18 15:18:00,24.8,-4.7,29.90,NNE,23,3.4,9.2,27,0.00,,,0.00,WUHU216HW,2013-02-18 20:18:00,
2013-02-18 15:23:00,24.8,-3.0,29.90,North,0,2.2,9.2,29,0.00,,,0.00,WUHU216HW,2013-02-18 20:23:00,
2013-02-18 15:28:00,24.7,-4.0,29.90,North,0,1.8,8.5,28,0.00,,,0.00,WUHU216HW,2013-02-18 20:28:00,
2013-02-18 15:34:00,24.7,-3.1,29.90,NNE,23,4.0,6.0,29,0.00,,,0.00,WUHU216HW,2013-02-18 20:34:00,
2013-02-18 15:39:00,24.8,-3.9,29.90,NNW,338,6.5,6.7,28,0.00,,,0.00,WUHU216HW,2013-02-18 20:39:00,
2013-02-18 15:44:00,24.8,-3.9,29.90,North,0,4.0,6.7,28,0.00,,,0.00,WUHU216HW,2013-02-18 20:44:00,
2013-02-18 15:49:00,24.8,-3.9,29.90,NW,315,2.2,6.0,28,0.00,,,0.00,WUHU216HW,2013-02-18 20:49:00,
2013-02-18 15:54:00,24.5,-4.1,29.91,ENE,68,1.6,4.0,28,0.00,,,0.00,WUHU216HW,2013-02-18 20:54:00,
2013-02-18 15:59:00,24.7,-4.9,29.91,NNW,338,5.1,5.1,27,0.00,,,0.00,WUHU216HW,2013-02-18 20:59:00,
2013-02-18 16:04:00,24.7,-4.0,29.91,North,0,5.4,5.4,28,0.00,,,0.00,WUHU216HW,2013-02-18 21:04:00,
2013-02-18 16:09:00,24.7,-3.1,29.91,North,0,0.7,5.4,29,0.00,,,0.00,WUHU216HW,2013-02-18 21:09:00,
2013-02-18 16:14:00,24.1,-4.5,29.91,North,0,1.8,5.4,28,0.00,,,0.00,WUHU216HW,2013-02-18 21:14:00,
2013-02-18 16:19:00,24.1,-3.7,29.91,ENE,68,0.4,4.0,29,0.00,,,0.00,WUHU216HW,2013-02-18 21:19:00,
2013-02-18 16:24:00,23.9,-2.3,29.91,NNE,23,1.8,4.0,31,0.00,,,0.00,WUHU216HW,2013-02-18 21:24:00,
2013-02-18 16:29:00,23.4,-2.2,29.91,WSW,248,1.3,1.8,32,0.00,,,0.00,WUHU216HW,2013-02-18 21:29:00,
2013-02-18 16:34:00,23.0,-2.5,29.91,South,180,0.4,1.3,32,0.00,,,0.00,WUHU216HW,2013-02-18 21:34:00,
2013-02-18 16:39:00,22.9,-2.7,29.92,NNW,338,1.8,3.6,32,0.00,,,0.00,WUHU216HW,2013-02-18 21:39:00,
2013-02-18 16:44:00,22.7,-1.6,29.92,ESE,113,0.2,3.6,34,0.00,,,0.00,WUHU216HW,2013-02-18 21:44:00,
2013-02-18 16:49:00,22.3,-2.0,29.93,SW,225,0.0,1.3,34,0.00,,,0.00,WUHU216HW,2013-02-18 21:49:00,
2013-02-18 16:54:00,22.0,-3.5,29.93,WNW,293,4.5,4.5,32,0.00,,,0.00,WUHU216HW,2013-02-18 21:54:00,
2013-02-18 16:59:00,22.7,-3.5,29.93,WNW,293,2.5,4.5,31,0.00,,,0.00,WUHU216HW,2013-02-18 21:59:00,
2013-02-18 17:04:00,22.7,-2.2,29.93,WSW,248,0.2,2.5,33,0.00,,,0.00,WUHU216HW,2013-02-18 22:04:00,
2013-02-18 17:09:00,22.0,-2.3,29.93,WSW,248,0.0,1.1,34,0.00,,,0.00,WUHU216HW,2013-02-18 22:09:00,
2013-02-18 17:14:00,21.2,-2.3,29.93,West,270,1.3,1.3,35,0.00,,,0.00,WUHU216HW,2013-02-18 22:14:00,
2013-02-18 17:19:00,20.5,-3.0,29.93,West,270,0.0,1.3,35,0.00,,,0.00,WUHU216HW,2013-02-18 22:19:00,
2013-02-18 17:24:00,20.2,-2.7,29.94,West,270,0.9,1.1,36,0.00,,,0.00,WUHU216HW,2013-02-18 22:24:00,
2013-02-18 17:29:00,20.0,-2.9,29.94,West,270,0.9,1.1,36,0.00,,,0.00,WUHU216HW,2013-02-18 22:29:00,
2013-02-18 17:35:00,20.0,-2.2,29.94,West,270,0.4,1.1,37,0.00,,,0.00,WUHU216HW,2013-02-18 22:35:00,
2013-02-18 17:40:00,19.4,-1.5,29.94,North,0,0.0,0.7,39,0.00,,,0.00,WUHU216HW,2013-02-18 22:40:00,
2013-02-18 17:45:00,18.7,-1.1,29.94,North,0,0.0,0.4,41,0.00,,,0.00,WUHU216HW,2013-02-18 22:45:00,
2013-02-18 17:50:00,18.2,-0.6,29.95,North,0,0.0,0.0,43,0.00,,,0.00,WUHU216HW,2013-02-18 22:50:00,
2013-02-18 17:55:00,18.0,-1.7,29.95,North,0,0.0,0.0,41,0.00,,,0.00,WUHU216HW,2013-02-18 22:55:00,
2013-02-18 18:00:00,17.5,0.1,29.95,North,0,0.0,0.0,46,0.00,,,0.00,WUHU216HW,2013-02-18 23:00:00,
2013-02-18 18:05:00,16.9,1.1,29.95,North,0,0.0,0.0,49,0.00,,,0.00,WUHU216HW,2013-02-18 23:05:00,
2013-02-18 18:10:00,16.4,1.0,29.95,North,0,0.0,0.0,50,0.00,,,0.00,WUHU216HW,2013-02-18 23:10:00,
2013-02-18 18:15:00,16.2,1.3,29.95,North,0,0.0,0.0,51,0.00,,,0.00,WUHU216HW,2013-02-18 23:15:00,
2013-02-18 18:20:00,15.8,0.5,29.95,North,0,0.0,0.0,50,0.00,,,0.00,WUHU216HW,2013-02-18 23:20:00,
2013-02-18 18:25:00,15.7,-0.6,29.96,North,0,0.0,0.0,48,0.00,,,0.00,WUHU216HW,2013-02-18 23:25:00,
2013-02-18 18:30:00,15.1,-1.2,29.96,North,0,0.0,0.0,48,0.00,,,0.00,WUHU216HW,2013-02-18 23:30:00,
2013-02-18 18:35:00,14.9,-0.8,29.96,North,0,0.0,0.0,49,0.00,,,0.00,WUHU216HW,2013-02-18 23:35:00,
2013-02-18 18:40:00,14.8,-1.5,29.96,North,0,0.0,0.0,48,0.00,,,0.00,WUHU216HW,2013-02-18 23:40:00,
2013-02-18 18:45:00,14.2,-2.5,29.96,North,0,0.0,0.0,47,0.00,,,0.00,WUHU216HW,2013-02-18 23:45:00,
2013-02-18 18:51:00,13.9,-2.3,29.96,North,0,0.0,0.0,48,0.00,,,0.00,WUHU216HW,2013-02-18 23:51:00,
2013-02-18 18:56:00,13.5,-1.7,29.96,North,0,0.0,0.0,50,0.00,,,0.00,WUHU216HW,2013-02-18 23:56:00,
2013-02-18 19:01:00,13.1,-1.2,29.97,North,0,0.0,0.0,52,0.00,,,0.00,WUHU216HW,2013-02-19 00:01:00,
2013-02-18 19:06:00,13.1,-1.2,29.97,North,0,0.0,0.0,52,0.00,,,0.00,WUHU216HW,2013-02-19 00:06:00,
2013-02-18 19:11:00,13.1,0.3,29.97,North,0,0.0,0.0,56,0.00,,,0.00,WUHU216HW,2013-02-19 00:11:00,
2013-02-18 19:16:00,12.4,-0.8,29.97,North,0,0.0,0.0,55,0.00,,,0.00,WUHU216HW,2013-02-19 00:16:00,
2013-02-18 19:21:00,12.4,-0.4,29.97,North,0,0.0,0.0,56,0.00,,,0.00,WUHU216HW,2013-02-19 00:21:00,
2013-02-18 19:26:00,12.4,-0.8,29.97,North,0,0.0,0.0,55,0.00,,,0.00,WUHU216HW,2013-02-19 00:26:00,
2013-02-18 19:31:00,11.9,-0.9,29.97,North,0,0.0,0.0,56,0.00,,,0.00,WUHU216HW,2013-02-19 00:31:00,
2013-02-18 19:36:00,11.3,-0.6,29.97,North,0,0.0,0.0,58,0.00,,,0.00,WUHU216HW,2013-02-19 00:36:00,
2013-02-18 19:41:00,11.2,-0.4,29.97,North,0,0.0,0.0,59,0.00,,,0.00,WUHU216HW,2013-02-19 00:41:00,
2013-02-18 19:46:00,11.2,-0.4,29.97,North,0,0.0,0.0,59,0.00,,,0.00,WUHU216HW,2013-02-19 00:46:00,
2013-02-18 19:51:00,11.7,-0.4,29.97,North,0,0.0,0.0,58,0.00,,,0.00,WUHU216HW,2013-02-19 00:51:00,
2013-02-18 19:56:00,11.7,-0.7,29.97,North,0,0.0,0.0,57,0.00,,,0.00,WUHU216HW,2013-02-19 00:56:00,
2013-02-18 20:01:00,11.2,-0.4,29.97,North,0,0.0,0.0,59,0.00,,,0.00,WUHU216HW,2013-02-19 01:01:00,
2013-02-18 20:06:00,10.6,-0.9,29.98,North,0,0.0,0.0,59,0.00,,,0.00,WUHU216HW,2013-02-19 01:06:00,
2013-02-18 20:11:00,10.4,-1.1,29.97,North,0,0.0,0.0,59,0.00,,,0.00,WUHU216HW,2013-02-19 01:11:00,
2013-02-18 20:16:00,10.4,-1.1,29.98,North,0,0.0,0.0,59,0.00,,,0.00,WUHU216HW,2013-02-19 01:16:00,
2013-02-18 20:21:00,10.3,-0.9,29.97,North,0,0.0,0.0,60,0.00,,,0.00,WUHU216HW,2013-02-19 01:21:00,
2013-02-18 20:26:00,9.5,-1.0,29.97,North,0,0.0,0.0,62,0.00,,,0.00,WUHU216HW,2013-02-19 01:26:00,
2013-02-18 20:31:00,9.4,-0.4,29.97,North,0,0.0,0.0,64,0.00,,,0.00,WUHU216HW,2013-02-19 01:31:00,
2013-02-18 20:36:00,9.5,-0.3,29.97,North,0,0.0,0.0,64,0.00,,,0.00,WUHU216HW,2013-02-19 01:36:00,
2013-02-18 20:41:00,9.5,-1.0,29.97,North,0,0.0,0.0,62,0.00,,,0.00,WUHU216HW,2013-02-19 01:41:00,
2013-02-18 20:47:00,9.4,-1.8,29.98,North,0,0.0,0.0,60,0.00,,,0.00,WUHU216HW,2013-02-19 01:47:00,
2013-02-18 20:52:00,9.0,-2.2,29.98,North,0,0.0,0.0,60,0.00,,,0.00,WUHU216HW,2013-02-19 01:52:00,
2013-02-18 20:57:00,8.8,-2.0,29.98,North,0,0.0,0.0,61,0.00,,,0.00,WUHU216HW,2013-02-19 01:57:00,
2013-02-18 21:02:00,8.6,-1.8,29.98,North,0,0.0,0.0,62,0.00,,,0.00,WUHU216HW,2013-02-19 02:02:00,
2013-02-18 21:07:00,8.3,-2.5,29.98,North,0,0.0,0.0,61,0.00,,,0.00,WUHU216HW,2013-02-19 02:07:00,
2013-02-18 21:12:00,8.3,-1.8,29.98,North,0,0.0,0.0,63,0.00,,,0.00,WUHU216HW,2013-02-19 02:12:00,
2013-02-18 21:17:00,7.9,-1.5,29.98,North,0,0.0,0.0,65,0.00,,,0.00,WUHU216HW,2013-02-19 02:17:00,
2013-02-18 21:22:00,8.1,-1.0,29.98,North,0,0.0,0.0,66,0.00,,,0.00,WUHU216HW,2013-02-19 02:22:00,
2013-02-18 21:27:00,7.9,-1.8,29.98,North,0,0.0,0.0,64,0.00,,,0.00,WUHU216HW,2013-02-19 02:27:00,
2013-02-18 21:32:00,7.9,-1.5,29.97,North,0,0.0,0.0,65,0.00,,,0.00,WUHU216HW,2013-02-19 02:32:00,
2013-02-18 21:37:00,8.1,-1.0,29.97,North,0,0.0,0.0,66,0.00,,,0.00,WUHU216HW,2013-02-19 02:37:00,
2013-02-18 21:42:00,8.1,-1.0,29.97,North,0,0.0,0.0,66,0.00,,,0.00,WUHU216HW,2013-02-19 02:42:00,
2013-02-18 21:47:00,7.9,-0.8,29.97,North,0,0.0,0.0,67,0.00,,,0.00,WUHU216HW,2013-02-19 02:47:00,
2013-02-18 21:52:00,7.9,-1.5,29.98,North,0,0.0,0.0,65,0.00,,,0.00,WUHU216HW,2013-02-19 02:52:00,
2013-02-18 21:57:00,7.7,-2.0,29.97,North,0,0.0,0.0,64,0.00,,,0.00,WUHU216HW,2013-02-19 02:57:00,
2013-02-18 22:02:00,7.6,-1.5,29.97,North,0,0.0,0.0,66,0.00,,,0.00,WUHU216HW,2013-02-19 03:02:00,
2013-02-18 22:07:00,7.4,-1.7,29.98,North,0,0.0,0.0,66,0.00,,,0.00,WUHU216HW,2013-02-19 03:07:00,
2013-02-18 22:12:00,7.2,-2.1,29.98,North,0,0.0,0.0,65,0.00,,,0.00,WUHU216HW,2013-02-19 03:12:00,
2013-02-18 22:17:00,7.0,-2.7,29.98,North,0,0.0,0.0,64,0.00,,,0.00,WUHU216HW,2013-02-19 03:17:00,
2013-02-18 22:22:00,6.8,-2.9,29.98,North,0,0.0,0.0,64,0.00,,,0.00,WUHU216HW,2013-02-19 03:22:00,
2013-02-18 22:27:00,6.5,-3.2,29.98,North,0,0.0,0.0,64,0.00,,,0.00,WUHU216HW,2013-02-19 03:27:00,
2013-02-18 22:32:00,6.7,-1.7,29.98,North,0,0.0,0.0,68,0.00,,,0.00,WUHU216HW,2013-02-19 03:32:00,
2013-02-18 22:37:00,6.5,-2.2,29.98,North,0,0.0,0.0,67,0.00,,,0.00,WUHU216HW,2013-02-19 03:37:00,
2013-02-18 22:42:00,6.3,-1.8,29.98,North,0,0.0,0.0,69,0.00,,,0.00,WUHU216HW,2013-02-19 03:42:00,
2013-02-18 22:47:00,6.3,-2.4,29.97,North,0,0.0,0.0,67,0.00,,,0.00,WUHU216HW,2013-02-19 03:47:00,
2013-02-18 22:52:00,6.7,-2.1,29.97,North,0,0.0,0.0,67,0.00,,,0.00,WUHU216HW,2013-02-19 03:52:00,
2013-02-18 22:57:00,6.5,-1.9,29.97,North,0,0.0,0.0,68,0.00,,,0.00,WUHU216HW,2013-02-19 03:57:00,
2013-02-18 23:02:00,6.1,-1.6,29.96,North,0,0.0,0.0,70,0.00,,,0.00,WUHU216HW,2013-02-19 04:02:00,
2013-02-18 23:07:00,5.9,-2.2,29.96,North,0,0.0,0.0,69,0.00,,,0.00,WUHU216HW,2013-02-19 04:07:00,
2013-02-18 23:12:00,5.8,-2.3,29.96,North,0,0.0,0.0,69,0.00,,,0.00,WUHU216HW,2013-02-19 04:12:00,
2013-02-18 23:17:00,5.6,-3.1,29.96,North,0,0.0,0.0,67,0.00,,,0.00,WUHU216HW,2013-02-19 04:17:00,
2013-02-18 23:22:00,5.4,-3.3,29.97,North,0,0.0,0.0,67,0.00,,,0.00,WUHU216HW,2013-02-19 04:22:00,
2013-02-18 23:27:00,5.4,-3.6,29.97,North,0,0.0,0.0,66,0.00,,,0.00,WUHU216HW,2013-02-19 04:27:00,
2013-02-18 23:33:00,5.0,-3.9,29.97,North,0,0.0,0.0,66,0.00,,,0.00,WUHU216HW,2013-02-19 04:33:00,
2013-02-18 23:38:00,5.0,-3.9,29.97,North,0,0.0,0.0,66,0.00,,,0.00,WUHU216HW,2013-02-19 04:38:00,
2013-02-18 23:43:00,4.9,-3.9,29.96,North,0,0.0,0.0,67,0.00,,,0.00,WUHU216HW,2013-02-19 04:43:00,
2013-02-18 23:48:00,4.9,-3.1,29.96,North,0,0.0,0.0,69,0.00,,,0.00,WUHU216HW,2013-02-19 04:48:00,
2013-02-18 23:53:00,4.7,-2.4,29.97,North,0,0.0,0.0,72,0.00,,,0.00,WUHU216HW,2013-02-19 04:53:00,
2013-02-18 23:58:00,4.9,-3.1,29.97,North,0,0.0,0.0,69,0.00,,,0.00,WUHU216HW,2013-02-19 04:58:00,